Wetterdaten: aktuell Samstag, 05.09.2026 10:15
Datum Zeit Temp. A. Feuchte A. Luftdruck Regen Wind Richtung Richtung Sonnenschein Solar Taupunkt Windböen
05.09.2026 10:15 15,3 °C 90 % 1012,0 hPa 0,0 l/m² 1,8 km/h (1 Bft) S 175 ° 5 min 360 W/m² 13,7 °C 11,3 km/h (2 Bft)
05.09.2026 10:10 15,1 °C 89 % 1012,0 hPa 0,0 l/m² 2,5 km/h (1 Bft) S-SW 197 ° 0 min 248 W/m² 13,3 °C 19,3 km/h (3 Bft)
05.09.2026 10:05 14,9 °C 90 % 1011,9 hPa 0,0 l/m² 3,2 km/h (1 Bft) W 279 ° 0 min 256 W/m² 13,3 °C 17,7 km/h (3 Bft)
05.09.2026 10:00 14,8 °C 91 % 1011,9 hPa 0,0 l/m² 1,4 km/h (1 Bft) W 277 ° 5 min 289 W/m² 13,3 °C 9,7 km/h (2 Bft)
05.09.2026 09:55 14,7 °C 91 % 1011,9 hPa 0,0 l/m² 2,0 km/h (1 Bft) S-SW 205 ° 5 min 391 W/m² 13,2 °C 14,5 km/h (3 Bft)
05.09.2026 09:50 14,4 °C 91 % 1011,8 hPa 0,0 l/m² 1,7 km/h (1 Bft) W 281 ° 0 min 235 W/m² 12,9 °C 9,7 km/h (2 Bft)
05.09.2026 09:45 14,4 °C 91 % 1011,7 hPa 0,0 l/m² 2,4 km/h (1 Bft) W-NW 286 ° 0 min 143 W/m² 12,9 °C 11,3 km/h (2 Bft)
05.09.2026 09:40 14,2 °C 93 % 1011,6 hPa 0,0 l/m² 0,3 km/h (0 Bft) N-NW 340 ° 0 min 181 W/m² 13,1 °C 4,8 km/h (1 Bft)
05.09.2026 09:35 13,8 °C 92 % 1011,6 hPa 0,0 l/m² 1,1 km/h (1 Bft) SW 217 ° 0 min 199 W/m² 12,5 °C 8,0 km/h (2 Bft)
05.09.2026 09:30 13,7 °C 92 % 1011,6 hPa 0,0 l/m² 0,5 km/h (0 Bft) SW 227 ° 0 min 217 W/m² 12,4 °C 9,7 km/h (2 Bft)
05.09.2026 09:25 13,4 °C 92 % 1011,6 hPa 0,0 l/m² 0,5 km/h (0 Bft) W-SW 258 ° 0 min 126 W/m² 12,1 °C 9,7 km/h (2 Bft)
05.09.2026 09:20 13,4 °C 91 % 1011,5 hPa 0,0 l/m² 0,6 km/h (0 Bft) W 275 ° 0 min 93 W/m² 12,0 °C 3,2 km/h (1 Bft)
05.09.2026 09:15 13,3 °C 92 % 1011,5 hPa 0,0 l/m² 1,1 km/h (1 Bft) SW 228 ° 0 min 88 W/m² 12,0 °C 4,8 km/h (1 Bft)
05.09.2026 09:10 13,4 °C 92 % 1011,5 hPa 0,0 l/m² 0,8 km/h (0 Bft) S-SW 202 ° 0 min 101 W/m² 12,1 °C 6,4 km/h (2 Bft)
05.09.2026 09:05 13,4 °C 92 % 1011,4 hPa 0,0 l/m² 2,2 km/h (1 Bft) W-SW 258 ° 0 min 140 W/m² 12,1 °C 12,9 km/h (3 Bft)
05.09.2026 09:00 13,4 °C 92 % 1011,4 hPa 0,0 l/m² 0,3 km/h (0 Bft) W 276 ° 0 min 123 W/m² 12,1 °C 3,2 km/h (1 Bft)
05.09.2026 08:55 13,3 °C 92 % 1011,4 hPa 0,0 l/m² 1,0 km/h (0 Bft) S-SW 207 ° 0 min 106 W/m² 12,0 °C 6,4 km/h (2 Bft)
05.09.2026 08:50 13,2 °C 92 % 1011,4 hPa 0,0 l/m² 0,6 km/h (0 Bft) S-SW 205 ° 0 min 127 W/m² 11,9 °C 3,2 km/h (1 Bft)
05.09.2026 08:45 13,1 °C 92 % 1011,3 hPa 0,0 l/m² 1,0 km/h (0 Bft) SW 223 ° 0 min 115 W/m² 11,8 °C 6,4 km/h (2 Bft)
05.09.2026 08:40 13,1 °C 92 % 1011,3 hPa 0,0 l/m² 0,7 km/h (0 Bft) W-NW 285 ° 0 min 57 W/m² 11,8 °C 11,3 km/h (2 Bft)
05.09.2026 08:35 13,0 °C 92 % 1011,2 hPa 0,2 l/m² 1,1 km/h (1 Bft) S 175 ° 0 min 44 W/m² 11,7 °C 9,7 km/h (2 Bft)
05.09.2026 08:30 13,1 °C 92 % 1011,3 hPa 0,0 l/m² 0,8 km/h (0 Bft) W-NW 297 ° 0 min 37 W/m² 11,8 °C 4,8 km/h (1 Bft)
05.09.2026 08:25 13,0 °C 92 % 1011,2 hPa 0,0 l/m² 2,2 km/h (1 Bft) O 101 ° 0 min 30 W/m² 11,7 °C 19,3 km/h (3 Bft)
05.09.2026 08:20 13,0 °C 92 % 1011,2 hPa 0,0 l/m² 0,5 km/h (0 Bft) W 281 ° 0 min 40 W/m² 11,7 °C 3,2 km/h (1 Bft)
05.09.2026 08:15 13,0 °C 92 % 1011,1 hPa 0,0 l/m² 0,8 km/h (0 Bft) W 278 ° 0 min 45 W/m² 11,7 °C 6,4 km/h (2 Bft)
05.09.2026 08:10 12,9 °C 92 % 1011,1 hPa 0,0 l/m² 0,4 km/h (0 Bft) W-NW 300 ° 0 min 35 W/m² 11,6 °C 4,8 km/h (1 Bft)
05.09.2026 08:05 13,0 °C 92 % 1011,0 hPa 0,0 l/m² 0,7 km/h (0 Bft) S-SW 199 ° 0 min 44 W/m² 11,7 °C 11,3 km/h (2 Bft)
05.09.2026 08:00 12,9 °C 92 % 1010,9 hPa 0,0 l/m² 0,2 km/h (0 Bft) S-SW 200 ° 0 min 53 W/m² 11,6 °C 4,8 km/h (1 Bft)
05.09.2026 07:55 12,9 °C 92 % 1010,9 hPa 0,0 l/m² 0,4 km/h (0 Bft) SO 133 ° 0 min 47 W/m² 11,6 °C 4,8 km/h (1 Bft)
05.09.2026 07:50 12,9 °C 92 % 1010,7 hPa 0,0 l/m² 0,6 km/h (0 Bft) W 275 ° 0 min 35 W/m² 11,6 °C 4,8 km/h (1 Bft)
05.09.2026 07:45 12,9 °C 92 % 1010,7 hPa 0,2 l/m² 0,2 km/h (0 Bft) S-SO 161 ° 0 min 20 W/m² 11,6 °C 3,2 km/h (1 Bft)
05.09.2026 07:40 12,9 °C 92 % 1010,8 hPa 0,0 l/m² 0,1 km/h (0 Bft) W 277 ° 0 min 17 W/m² 11,6 °C 1,6 km/h (1 Bft)
05.09.2026 07:35 12,9 °C 92 % 1010,7 hPa 0,0 l/m² 0,2 km/h (0 Bft) W 268 ° 0 min 19 W/m² 11,6 °C 3,2 km/h (1 Bft)
05.09.2026 07:30 12,9 °C 92 % 1010,6 hPa 0,0 l/m² 0,4 km/h (0 Bft) SW 230 ° 0 min 18 W/m² 11,6 °C 4,8 km/h (1 Bft)
05.09.2026 07:25 12,9 °C 92 % 1010,6 hPa 0,0 l/m² 0,4 km/h (0 Bft) W 271 ° 0 min 15 W/m² 11,6 °C 4,8 km/h (1 Bft)
05.09.2026 07:20 12,9 °C 92 % 1010,7 hPa 0,2 l/m² 1,1 km/h (1 Bft) SW 223 ° 0 min 12 W/m² 11,6 °C 6,4 km/h (2 Bft)
05.09.2026 07:15 12,8 °C 92 % 1010,7 hPa 0,2 l/m² 0,7 km/h (0 Bft) W 278 ° 0 min 12 W/m² 11,5 °C 3,2 km/h (1 Bft)
05.09.2026 07:10 12,8 °C 92 % 1010,6 hPa 0,0 l/m² 1,5 km/h (1 Bft) W-SW 242 ° 0 min 12 W/m² 11,5 °C 14,5 km/h (3 Bft)
05.09.2026 07:05 12,7 °C 91 % 1010,6 hPa 0,0 l/m² 0,8 km/h (0 Bft) S-SW 212 ° 0 min 11 W/m² 11,3 °C 6,4 km/h (2 Bft)
05.09.2026 07:00 12,6 °C 91 % 1010,5 hPa 0,0 l/m² 1,4 km/h (1 Bft) S 190 ° 0 min 8 W/m² 11,2 °C 11,3 km/h (2 Bft)
05.09.2026 06:55 12,6 °C 91 % 1010,5 hPa 0,0 l/m² 0,3 km/h (0 Bft) S 190 ° 0 min 5 W/m² 11,2 °C 9,7 km/h (2 Bft)
05.09.2026 06:50 12,6 °C 91 % 1010,4 hPa 0,0 l/m² 0,8 km/h (0 Bft) NW 304 ° 0 min 5 W/m² 11,2 °C 11,3 km/h (2 Bft)
05.09.2026 06:45 12,6 °C 91 % 1010,5 hPa 0,0 l/m² 1,1 km/h (1 Bft) W-NW 293 ° 0 min 5 W/m² 11,2 °C 11,3 km/h (2 Bft)
05.09.2026 06:40 12,6 °C 91 % 1010,4 hPa 0,0 l/m² 0,2 km/h (0 Bft) W 270 ° 0 min 5 W/m² 11,2 °C 4,8 km/h (1 Bft)
05.09.2026 06:35 12,6 °C 91 % 1010,3 hPa 0,0 l/m² 0,3 km/h (0 Bft) S 190 ° 0 min 3 W/m² 11,2 °C 4,8 km/h (1 Bft)
05.09.2026 06:30 12,6 °C 91 % 1010,4 hPa 0,0 l/m² 0,2 km/h (0 Bft) SW 223 ° 0 min 0 W/m² 11,2 °C 3,2 km/h (1 Bft)
05.09.2026 06:25 12,6 °C 91 % 1010,3 hPa 0,0 l/m² 0,7 km/h (0 Bft) W 261 ° 0 min 0 W/m² 11,2 °C 9,7 km/h (2 Bft)
05.09.2026 06:20 12,6 °C 91 % 1010,2 hPa 0,0 l/m² 0,2 km/h (0 Bft) S-SW 202 ° 0 min 0 W/m² 11,2 °C 4,8 km/h (1 Bft)
05.09.2026 06:15 12,7 °C 91 % 1010,2 hPa 0,0 l/m² 0,6 km/h (0 Bft) W 270 ° 0 min 0 W/m² 11,3 °C 4,8 km/h (1 Bft)
05.09.2026 06:10 12,7 °C 91 % 1010,2 hPa 0,0 l/m² 0,4 km/h (0 Bft) SW 232 ° 0 min 0 W/m² 11,3 °C 6,4 km/h (2 Bft)
05.09.2026 06:05 12,7 °C 91 % 1010,2 hPa 0,0 l/m² 0,2 km/h (0 Bft) W-SW 250 ° 0 min 0 W/m² 11,3 °C 6,4 km/h (2 Bft)
05.09.2026 06:00 12,7 °C 91 % 1010,3 hPa 0,2 l/m² 1,0 km/h (0 Bft) SW 229 ° 0 min 0 W/m² 11,3 °C 6,4 km/h (2 Bft)
05.09.2026 05:55 12,7 °C 91 % 1010,3 hPa 0,0 l/m² 1,2 km/h (1 Bft) SW 215 ° 0 min 0 W/m² 11,3 °C 4,8 km/h (1 Bft)
05.09.2026 05:50 12,6 °C 91 % 1010,2 hPa 0,0 l/m² 0,5 km/h (0 Bft) NW 312 ° 0 min 0 W/m² 11,2 °C 3,2 km/h (1 Bft)
05.09.2026 05:45 12,5 °C 91 % 1010,2 hPa 0,0 l/m² 0,6 km/h (0 Bft) SW 236 ° 0 min 0 W/m² 11,1 °C 6,4 km/h (2 Bft)
05.09.2026 05:40 12,4 °C 91 % 1010,1 hPa 0,0 l/m² 0,8 km/h (0 Bft) SW 235 ° 0 min 0 W/m² 11,0 °C 4,8 km/h (1 Bft)
05.09.2026 05:35 12,4 °C 91 % 1010,1 hPa 0,0 l/m² 0,6 km/h (0 Bft) SO 130 ° 0 min 0 W/m² 11,0 °C 4,8 km/h (1 Bft)
05.09.2026 05:30 12,4 °C 91 % 1010,0 hPa 0,0 l/m² 0,1 km/h (0 Bft) O-SO 111 ° 0 min 0 W/m² 11,0 °C 1,6 km/h (1 Bft)
05.09.2026 05:25 12,4 °C 91 % 1010,0 hPa 0,0 l/m² 0,3 km/h (0 Bft) SW 223 ° 0 min 0 W/m² 11,0 °C 3,2 km/h (1 Bft)
05.09.2026 05:20 12,4 °C 91 % 1009,9 hPa 0,0 l/m² 0,0 km/h (0 Bft) SW 223 ° 0 min 0 W/m² 11,0 °C 1,6 km/h (1 Bft)
05.09.2026 05:15 12,4 °C 91 % 1010,0 hPa 0,0 l/m² 0,0 km/h (0 Bft) SW 236 ° 0 min 0 W/m² 11,0 °C 1,6 km/h (1 Bft)
05.09.2026 05:10 12,4 °C 91 % 1010,0 hPa 0,0 l/m² 0,1 km/h (0 Bft) NW 311 ° 0 min 0 W/m² 11,0 °C 3,2 km/h (1 Bft)
05.09.2026 05:05 12,4 °C 91 % 1009,8 hPa 0,0 l/m² 0,3 km/h (0 Bft) W-NW 298 ° 0 min 0 W/m² 11,0 °C 3,2 km/h (1 Bft)
05.09.2026 05:00 12,4 °C 91 % 1009,8 hPa 0,0 l/m² 0,2 km/h (0 Bft) S-SW 192 ° 0 min 0 W/m² 11,0 °C 1,6 km/h (1 Bft)
05.09.2026 04:55 12,5 °C 90 % 1009,8 hPa 0,0 l/m² 0,1 km/h (0 Bft) SW 226 ° 0 min 0 W/m² 10,9 °C 1,6 km/h (1 Bft)
05.09.2026 04:50 12,5 °C 90 % 1009,7 hPa 0,0 l/m² 0,3 km/h (0 Bft) SW 217 ° 0 min 0 W/m² 10,9 °C 6,4 km/h (2 Bft)
05.09.2026 04:45 12,6 °C 90 % 1009,7 hPa 0,2 l/m² 0,3 km/h (0 Bft) SW 234 ° 0 min 0 W/m² 11,0 °C 4,8 km/h (1 Bft)
05.09.2026 04:40 12,6 °C 90 % 1009,7 hPa 0,0 l/m² 0,1 km/h (0 Bft) S-SO 162 ° 0 min 0 W/m² 11,0 °C 1,6 km/h (1 Bft)
05.09.2026 04:35 12,7 °C 90 % 1009,5 hPa 0,0 l/m² 0,0 km/h (0 Bft) W 278 ° 0 min 0 W/m² 11,1 °C 0,0 km/h (0 Bft)
05.09.2026 04:30 12,7 °C 91 % 1009,5 hPa 0,0 l/m² 0,3 km/h (0 Bft) SW 217 ° 0 min 0 W/m² 11,3 °C 4,8 km/h (1 Bft)
05.09.2026 04:25 12,6 °C 90 % 1009,5 hPa 0,0 l/m² 0,4 km/h (0 Bft) W 264 ° 0 min 0 W/m² 11,0 °C 6,4 km/h (2 Bft)
05.09.2026 04:20 12,6 °C 91 % 1009,6 hPa 0,0 l/m² 0,3 km/h (0 Bft) S 182 ° 0 min 0 W/m² 11,2 °C 4,8 km/h (1 Bft)
05.09.2026 04:15 12,6 °C 90 % 1009,6 hPa 0,0 l/m² 0,2 km/h (0 Bft) N-NO 21 ° 0 min 0 W/m² 11,0 °C 4,8 km/h (1 Bft)
05.09.2026 04:10 12,6 °C 90 % 1009,6 hPa 0,0 l/m² 0,0 km/h (0 Bft) N-NW 339 ° 0 min 0 W/m² 11,0 °C 1,6 km/h (1 Bft)
05.09.2026 04:05 12,6 °C 90 % 1009,6 hPa 0,0 l/m² 0,1 km/h (0 Bft) W 274 ° 0 min 0 W/m² 11,0 °C 1,6 km/h (1 Bft)
05.09.2026 04:00 12,6 °C 90 % 1009,5 hPa 0,0 l/m² 0,1 km/h (0 Bft) W-SW 242 ° 0 min 0 W/m² 11,0 °C 3,2 km/h (1 Bft)
05.09.2026 03:55 12,6 °C 90 % 1009,5 hPa 0,0 l/m² 0,6 km/h (0 Bft) SO 128 ° 0 min 0 W/m² 11,0 °C 6,4 km/h (2 Bft)
05.09.2026 03:50 12,6 °C 90 % 1009,4 hPa 0,0 l/m² 0,0 km/h (0 Bft) N-NO 32 ° 0 min 0 W/m² 11,0 °C 3,2 km/h (1 Bft)
05.09.2026 03:45 12,6 °C 90 % 1009,4 hPa 0,0 l/m² 0,1 km/h (0 Bft) SW 221 ° 0 min 0 W/m² 11,0 °C 1,6 km/h (1 Bft)
05.09.2026 03:40 12,6 °C 90 % 1009,3 hPa 0,0 l/m² 0,6 km/h (0 Bft) W-SW 250 ° 0 min 0 W/m² 11,0 °C 11,3 km/h (2 Bft)
05.09.2026 03:35 12,6 °C 90 % 1009,3 hPa 0,0 l/m² 0,7 km/h (0 Bft) W 268 ° 0 min 0 W/m² 11,0 °C 6,4 km/h (2 Bft)
05.09.2026 03:30 12,6 °C 89 % 1009,3 hPa 0,0 l/m² 0,1 km/h (0 Bft) W 269 ° 0 min 0 W/m² 10,8 °C 1,6 km/h (1 Bft)
05.09.2026 03:25 12,7 °C 89 % 1009,2 hPa 0,0 l/m² 0,0 km/h (0 Bft) W-NW 284 ° 0 min 0 W/m² 10,9 °C 0,0 km/h (0 Bft)
05.09.2026 03:20 12,7 °C 89 % 1009,2 hPa 0,0 l/m² 0,2 km/h (0 Bft) W 267 ° 0 min 0 W/m² 10,9 °C 3,2 km/h (1 Bft)
05.09.2026 03:15 12,7 °C 89 % 1009,2 hPa 0,0 l/m² 0,0 km/h (0 Bft) S-SW 209 ° 0 min 0 W/m² 10,9 °C 1,6 km/h (1 Bft)
05.09.2026 03:10 12,8 °C 89 % 1009,2 hPa 0,0 l/m² 0,5 km/h (0 Bft) NW 314 ° 0 min 0 W/m² 11,0 °C 4,8 km/h (1 Bft)
05.09.2026 03:05 12,8 °C 88 % 1009,1 hPa 0,0 l/m² 0,5 km/h (0 Bft) W 262 ° 0 min 0 W/m² 10,9 °C 6,4 km/h (2 Bft)
05.09.2026 03:00 12,9 °C 88 % 1009,1 hPa 0,0 l/m² 0,9 km/h (0 Bft) S-SW 198 ° 0 min 0 W/m² 11,0 °C 9,7 km/h (2 Bft)
05.09.2026 02:55 13,0 °C 88 % 1009,0 hPa 0,0 l/m² 0,7 km/h (0 Bft) S-SO 155 ° 0 min 0 W/m² 11,1 °C 6,4 km/h (2 Bft)
05.09.2026 02:50 13,1 °C 88 % 1009,0 hPa 0,0 l/m² 0,9 km/h (0 Bft) S 186 ° 0 min 0 W/m² 11,2 °C 6,4 km/h (2 Bft)
05.09.2026 02:45 13,1 °C 88 % 1009,0 hPa 0,0 l/m² 0,9 km/h (0 Bft) S-SW 209 ° 0 min 0 W/m² 11,2 °C 12,9 km/h (3 Bft)
05.09.2026 02:40 13,2 °C 88 % 1009,0 hPa 0,0 l/m² 1,4 km/h (1 Bft) W-SW 250 ° 0 min 0 W/m² 11,3 °C 9,7 km/h (2 Bft)
05.09.2026 02:35 13,2 °C 88 % 1008,9 hPa 0,0 l/m² 1,7 km/h (1 Bft) SW 229 ° 0 min 0 W/m² 11,3 °C 9,7 km/h (2 Bft)
05.09.2026 02:30 13,2 °C 89 % 1008,9 hPa 0,0 l/m² 2,1 km/h (1 Bft) W 275 ° 0 min 0 W/m² 11,4 °C 9,7 km/h (2 Bft)
05.09.2026 02:25 13,3 °C 89 % 1008,8 hPa 0,0 l/m² 0,9 km/h (0 Bft) O 101 ° 0 min 0 W/m² 11,5 °C 4,8 km/h (1 Bft)
05.09.2026 02:20 13,3 °C 89 % 1008,7 hPa 0,0 l/m² 0,8 km/h (0 Bft) W-SW 246 ° 0 min 0 W/m² 11,5 °C 6,4 km/h (2 Bft)
05.09.2026 02:15 13,4 °C 89 % 1008,7 hPa 0,0 l/m² 0,8 km/h (0 Bft) W-SW 250 ° 0 min 0 W/m² 11,6 °C 4,8 km/h (1 Bft)
05.09.2026 02:10 13,4 °C 90 % 1008,6 hPa 0,0 l/m² 0,8 km/h (0 Bft) NW 323 ° 0 min 0 W/m² 11,8 °C 9,7 km/h (2 Bft)
05.09.2026 02:05 13,4 °C 90 % 1008,6 hPa 0,0 l/m² 2,4 km/h (1 Bft) SW 216 ° 0 min 0 W/m² 11,8 °C 12,9 km/h (3 Bft)
05.09.2026 02:00 13,5 °C 90 % 1008,6 hPa 0,0 l/m² 0,9 km/h (0 Bft) S-SW 205 ° 0 min 0 W/m² 11,9 °C 8,0 km/h (2 Bft)
05.09.2026 01:55 13,5 °C 90 % 1008,5 hPa 0,0 l/m² 0,7 km/h (0 Bft) O-SO 122 ° 0 min 0 W/m² 11,9 °C 8,0 km/h (2 Bft)
05.09.2026 01:50 13,6 °C 90 % 1008,5 hPa 0,0 l/m² 0,7 km/h (0 Bft) W-SW 242 ° 0 min 0 W/m² 12,0 °C 8,0 km/h (2 Bft)
05.09.2026 01:45 13,7 °C 90 % 1008,5 hPa 0,0 l/m² 1,9 km/h (1 Bft) S-SW 213 ° 0 min 0 W/m² 12,1 °C 8,0 km/h (2 Bft)
05.09.2026 01:40 13,7 °C 89 % 1008,5 hPa 0,0 l/m² 2,2 km/h (1 Bft) W-SW 245 ° 0 min 0 W/m² 11,9 °C 11,3 km/h (2 Bft)
05.09.2026 01:35 13,8 °C 89 % 1008,4 hPa 0,0 l/m² 0,5 km/h (0 Bft) SW 235 ° 0 min 0 W/m² 12,0 °C 11,3 km/h (2 Bft)
05.09.2026 01:30 13,8 °C 89 % 1008,4 hPa 0,0 l/m² 2,2 km/h (1 Bft) SW 226 ° 0 min 0 W/m² 12,0 °C 12,9 km/h (3 Bft)
05.09.2026 01:25 13,8 °C 89 % 1008,2 hPa 0,0 l/m² 2,3 km/h (1 Bft) S-SW 213 ° 0 min 0 W/m² 12,0 °C 9,7 km/h (2 Bft)
05.09.2026 01:20 13,7 °C 89 % 1008,1 hPa 0,0 l/m² 0,8 km/h (0 Bft) SW 231 ° 0 min 0 W/m² 11,9 °C 4,8 km/h (1 Bft)
05.09.2026 01:15 13,7 °C 88 % 1008,1 hPa 0,0 l/m² 1,6 km/h (1 Bft) W-SW 245 ° 0 min 0 W/m² 11,7 °C 11,3 km/h (2 Bft)
05.09.2026 01:10 13,7 °C 88 % 1007,9 hPa 0,0 l/m² 2,0 km/h (1 Bft) SW 215 ° 0 min 0 W/m² 11,7 °C 11,3 km/h (2 Bft)
05.09.2026 01:05 13,8 °C 88 % 1008,0 hPa 0,0 l/m² 0,9 km/h (0 Bft) W 274 ° 0 min 0 W/m² 11,8 °C 9,7 km/h (2 Bft)
05.09.2026 01:00 13,8 °C 88 % 1007,9 hPa 0,0 l/m² 4,4 km/h (1 Bft) SW 217 ° 0 min 0 W/m² 11,8 °C 19,3 km/h (3 Bft)
05.09.2026 00:55 13,7 °C 88 % 1008,0 hPa 0,0 l/m² 1,0 km/h (0 Bft) S-SW 203 ° 0 min 0 W/m² 11,7 °C 6,4 km/h (2 Bft)
05.09.2026 00:50 13,7 °C 88 % 1007,9 hPa 0,0 l/m² 1,9 km/h (1 Bft) W 262 ° 0 min 0 W/m² 11,7 °C 11,3 km/h (2 Bft)
05.09.2026 00:45 13,8 °C 88 % 1007,9 hPa 0,0 l/m² 1,6 km/h (1 Bft) S 186 ° 0 min 0 W/m² 11,8 °C 12,9 km/h (3 Bft)
05.09.2026 00:40 13,8 °C 88 % 1007,9 hPa 0,0 l/m² 1,2 km/h (1 Bft) W-SW 256 ° 0 min 0 W/m² 11,8 °C 8,0 km/h (2 Bft)
05.09.2026 00:35 13,8 °C 88 % 1007,9 hPa 0,0 l/m² 1,7 km/h (1 Bft) W-NW 295 ° 0 min 0 W/m² 11,8 °C 11,3 km/h (2 Bft)
05.09.2026 00:30 13,9 °C 88 % 1007,9 hPa 0,0 l/m² 3,2 km/h (1 Bft) W-NW 299 ° 0 min 0 W/m² 11,9 °C 11,3 km/h (2 Bft)
05.09.2026 00:25 13,8 °C 88 % 1007,9 hPa 0,0 l/m² 2,9 km/h (1 Bft) SW 236 ° 0 min 0 W/m² 11,8 °C 12,9 km/h (3 Bft)
05.09.2026 00:20 13,7 °C 89 % 1007,8 hPa 0,0 l/m² 0,9 km/h (0 Bft) O 90 ° 0 min 0 W/m² 11,9 °C 8,0 km/h (2 Bft)
05.09.2026 00:15 13,7 °C 89 % 1007,7 hPa 0,0 l/m² 1,1 km/h (1 Bft) W-NW 301 ° 0 min 0 W/m² 11,9 °C 11,3 km/h (2 Bft)
05.09.2026 00:10 13,7 °C 88 % 1007,7 hPa 0,0 l/m² 1,3 km/h (1 Bft) SW 221 ° 0 min 0 W/m² 11,7 °C 14,5 km/h (3 Bft)
05.09.2026 00:05 13,8 °C 88 % 1007,6 hPa 0,0 l/m² 0,6 km/h (0 Bft) W-SW 244 ° 0 min 0 W/m² 11,8 °C 4,8 km/h (1 Bft)
05.09.2026 00:00 13,8 °C 88 % 1007,6 hPa 0,0 l/m² 0,6 km/h (0 Bft) SW 225 ° 0 min 0 W/m² 11,8 °C 6,4 km/h (2 Bft)
04.09.2026 23:55 13,8 °C 88 % 1007,6 hPa 0,0 l/m² 0,8 km/h (0 Bft) NW 311 ° 0 min 0 W/m² 11,8 °C 8,0 km/h (2 Bft)
04.09.2026 23:50 13,8 °C 88 % 1007,5 hPa 0,0 l/m² 1,9 km/h (1 Bft) SW 234 ° 0 min 0 W/m² 11,8 °C 14,5 km/h (3 Bft)
04.09.2026 23:45 13,9 °C 88 % 1007,5 hPa 0,0 l/m² 1,6 km/h (1 Bft) NW 316 ° 0 min 0 W/m² 11,9 °C 4,8 km/h (1 Bft)
04.09.2026 23:40 13,9 °C 88 % 1007,3 hPa 0,0 l/m² 0,6 km/h (0 Bft) SW 230 ° 0 min 0 W/m² 11,9 °C 6,4 km/h (2 Bft)
04.09.2026 23:35 13,9 °C 88 % 1007,3 hPa 0,0 l/m² 2,9 km/h (1 Bft) N-NW 347 ° 0 min 0 W/m² 11,9 °C 12,9 km/h (3 Bft)
04.09.2026 23:30 13,9 °C 89 % 1007,1 hPa 0,0 l/m² 2,1 km/h (1 Bft) W-SW 238 ° 0 min 0 W/m² 12,1 °C 16,1 km/h (3 Bft)
04.09.2026 23:25 13,8 °C 89 % 1007,3 hPa 0,0 l/m² 1,0 km/h (0 Bft) W-NW 298 ° 0 min 0 W/m² 12,0 °C 12,9 km/h (3 Bft)
04.09.2026 23:20 13,9 °C 89 % 1007,2 hPa 0,0 l/m² 1,5 km/h (1 Bft) SW 216 ° 0 min 0 W/m² 12,1 °C 12,9 km/h (3 Bft)
04.09.2026 23:15 13,8 °C 90 % 1007,3 hPa 0,0 l/m² 1,5 km/h (1 Bft) W-SW 251 ° 0 min 0 W/m² 12,2 °C 9,7 km/h (2 Bft)
04.09.2026 23:10 13,7 °C 90 % 1007,2 hPa 0,0 l/m² 2,0 km/h (1 Bft) SW 236 ° 0 min 0 W/m² 12,1 °C 8,0 km/h (2 Bft)
04.09.2026 23:05 13,7 °C 90 % 1007,2 hPa 0,0 l/m² 1,4 km/h (1 Bft) W 265 ° 0 min 0 W/m² 12,1 °C 11,3 km/h (2 Bft)
04.09.2026 23:00 13,6 °C 90 % 1007,3 hPa 0,0 l/m² 0,5 km/h (0 Bft) S-SW 211 ° 0 min 0 W/m² 12,0 °C 6,4 km/h (2 Bft)
04.09.2026 22:55 13,6 °C 90 % 1007,2 hPa 0,0 l/m² 0,4 km/h (0 Bft) W 279 ° 0 min 0 W/m² 12,0 °C 3,2 km/h (1 Bft)
04.09.2026 22:50 13,6 °C 89 % 1007,2 hPa 0,0 l/m² 0,1 km/h (0 Bft) W 261 ° 0 min 0 W/m² 11,8 °C 1,6 km/h (1 Bft)
04.09.2026 22:45 13,6 °C 89 % 1007,2 hPa 0,0 l/m² 0,1 km/h (0 Bft) SW 218 ° 0 min 0 W/m² 11,8 °C 3,2 km/h (1 Bft)
04.09.2026 22:40 13,6 °C 89 % 1007,2 hPa 0,0 l/m² 0,0 km/h (0 Bft) O-SO 114 ° 0 min 0 W/m² 11,8 °C 1,6 km/h (1 Bft)
04.09.2026 22:35 13,7 °C 88 % 1007,1 hPa 0,0 l/m² 0,4 km/h (0 Bft) W-NW 287 ° 0 min 0 W/m² 11,7 °C 8,0 km/h (2 Bft)
04.09.2026 22:30 13,7 °C 88 % 1007,2 hPa 0,0 l/m² 0,3 km/h (0 Bft) SW 229 ° 0 min 0 W/m² 11,7 °C 3,2 km/h (1 Bft)
04.09.2026 22:25 13,8 °C 88 % 1007,0 hPa 0,0 l/m² 1,8 km/h (1 Bft) W 281 ° 0 min 0 W/m² 11,8 °C 12,9 km/h (3 Bft)
04.09.2026 22:20 13,7 °C 88 % 1007,1 hPa 0,0 l/m² 0,4 km/h (0 Bft) S 185 ° 0 min 0 W/m² 11,7 °C 4,8 km/h (1 Bft)
04.09.2026 22:15 13,7 °C 88 % 1007,0 hPa 0,0 l/m² 2,8 km/h (1 Bft) SW 235 ° 0 min 0 W/m² 11,7 °C 12,9 km/h (3 Bft)
04.09.2026 22:10 13,7 °C 89 % 1007,0 hPa 0,0 l/m² 1,6 km/h (1 Bft) W 280 ° 0 min 0 W/m² 11,9 °C 14,5 km/h (3 Bft)
04.09.2026 22:05 13,7 °C 89 % 1007,0 hPa 0,0 l/m² 0,7 km/h (0 Bft) SW 229 ° 0 min 0 W/m² 11,9 °C 8,0 km/h (2 Bft)
04.09.2026 22:00 13,8 °C 89 % 1006,9 hPa 0,0 l/m² 0,4 km/h (0 Bft) S-SW 198 ° 0 min 0 W/m² 12,0 °C 6,4 km/h (2 Bft)
04.09.2026 21:55 13,9 °C 89 % 1007,0 hPa 0,0 l/m² 0,7 km/h (0 Bft) O 96 ° 0 min 0 W/m² 12,1 °C 6,4 km/h (2 Bft)
04.09.2026 21:50 13,9 °C 89 % 1007,0 hPa 0,0 l/m² 0,9 km/h (0 Bft) W-SW 250 ° 0 min 0 W/m² 12,1 °C 9,7 km/h (2 Bft)
04.09.2026 21:45 14,0 °C 89 % 1007,0 hPa 0,0 l/m² 1,0 km/h (0 Bft) N-NW 338 ° 0 min 0 W/m² 12,2 °C 4,8 km/h (1 Bft)
04.09.2026 21:40 14,0 °C 89 % 1007,0 hPa 0,0 l/m² 0,7 km/h (0 Bft) W-SW 242 ° 0 min 0 W/m² 12,2 °C 8,0 km/h (2 Bft)
04.09.2026 21:35 14,1 °C 89 % 1006,9 hPa 0,0 l/m² 0,3 km/h (0 Bft) W-NW 288 ° 0 min 0 W/m² 12,3 °C 1,6 km/h (1 Bft)
04.09.2026 21:30 14,2 °C 89 % 1006,9 hPa 0,0 l/m² 0,2 km/h (0 Bft) S-SW 199 ° 0 min 0 W/m² 12,4 °C 4,8 km/h (1 Bft)
04.09.2026 21:25 14,2 °C 89 % 1006,9 hPa 0,2 l/m² 1,5 km/h (1 Bft) W-SW 248 ° 0 min 0 W/m² 12,4 °C 6,4 km/h (2 Bft)
04.09.2026 21:20 14,2 °C 89 % 1006,8 hPa 0,0 l/m² 2,4 km/h (1 Bft) W-NW 282 ° 0 min 0 W/m² 12,4 °C 12,9 km/h (3 Bft)
04.09.2026 21:15 14,3 °C 89 % 1006,8 hPa 0,0 l/m² 1,1 km/h (1 Bft) SW 225 ° 0 min 0 W/m² 12,5 °C 8,0 km/h (2 Bft)
04.09.2026 21:10 14,3 °C 90 % 1006,7 hPa 0,0 l/m² 0,0 km/h (0 Bft) W-NW 286 ° 0 min 0 W/m² 12,7 °C 1,6 km/h (1 Bft)
04.09.2026 21:05 14,4 °C 90 % 1006,5 hPa 0,0 l/m² 0,0 km/h (0 Bft) S-SW 209 ° 0 min 0 W/m² 12,8 °C 1,6 km/h (1 Bft)
04.09.2026 21:00 14,4 °C 90 % 1006,6 hPa 0,0 l/m² 0,4 km/h (0 Bft) S-SO 155 ° 0 min 0 W/m² 12,8 °C 4,8 km/h (1 Bft)
04.09.2026 20:55 14,6 °C 89 % 1006,5 hPa 0,0 l/m² 0,7 km/h (0 Bft) W 263 ° 0 min 0 W/m² 12,8 °C 6,4 km/h (2 Bft)
04.09.2026 20:50 14,7 °C 89 % 1006,4 hPa 0,0 l/m² 1,8 km/h (1 Bft) S-SW 205 ° 0 min 0 W/m² 12,9 °C 8,0 km/h (2 Bft)
04.09.2026 20:45 14,8 °C 90 % 1006,3 hPa 0,0 l/m² 0,8 km/h (0 Bft) O-NO 63 ° 0 min 0 W/m² 13,2 °C 9,7 km/h (2 Bft)
04.09.2026 20:40 15,0 °C 89 % 1006,2 hPa 0,0 l/m² 0,8 km/h (0 Bft) SW 223 ° 0 min 0 W/m² 13,2 °C 6,4 km/h (2 Bft)
04.09.2026 20:35 15,1 °C 89 % 1006,0 hPa 0,0 l/m² 2,4 km/h (1 Bft) W-SW 253 ° 0 min 0 W/m² 13,3 °C 12,9 km/h (3 Bft)
04.09.2026 20:30 15,3 °C 88 % 1006,0 hPa 0,0 l/m² 1,4 km/h (1 Bft) NW 317 ° 0 min 0 W/m² 13,3 °C 17,7 km/h (3 Bft)
04.09.2026 20:25 15,4 °C 88 % 1005,9 hPa 0,0 l/m² 3,5 km/h (1 Bft) W-SW 255 ° 0 min 0 W/m² 13,4 °C 17,7 km/h (3 Bft)
04.09.2026 20:20 15,7 °C 87 % 1005,8 hPa 0,4 l/m² 6,2 km/h (2 Bft) NW 304 ° 0 min 0 W/m² 13,5 °C 27,4 km/h (4 Bft)
04.09.2026 20:15 15,8 °C 87 % 1005,7 hPa 0,0 l/m² 0,9 km/h (0 Bft) S 175 ° 0 min 0 W/m² 13,6 °C 11,3 km/h (2 Bft)
04.09.2026 20:10 15,8 °C 87 % 1005,4 hPa 0,0 l/m² 2,3 km/h (1 Bft) SW 223 ° 0 min 0 W/m² 13,6 °C 11,3 km/h (2 Bft)
04.09.2026 20:05 15,8 °C 87 % 1005,5 hPa 0,0 l/m² 3,8 km/h (1 Bft) W-SW 238 ° 0 min 0 W/m² 13,6 °C 17,7 km/h (3 Bft)
04.09.2026 20:00 15,9 °C 88 % 1005,3 hPa 0,0 l/m² 3,5 km/h (1 Bft) N-NW 333 ° 0 min 0 W/m² 13,9 °C 22,5 km/h (4 Bft)
04.09.2026 19:55 15,9 °C 89 % 1005,2 hPa 0,0 l/m² 2,4 km/h (1 Bft) W 261 ° 0 min 0 W/m² 14,1 °C 11,3 km/h (2 Bft)
04.09.2026 19:50 15,9 °C 89 % 1005,1 hPa 0,0 l/m² 4,1 km/h (1 Bft) W-NW 297 ° 0 min 2 W/m² 14,1 °C 19,3 km/h (3 Bft)
04.09.2026 19:45 15,9 °C 89 % 1005,0 hPa 0,0 l/m² 1,5 km/h (1 Bft) W 277 ° 0 min 10 W/m² 14,1 °C 14,5 km/h (3 Bft)
04.09.2026 19:40 15,9 °C 89 % 1005,0 hPa 0,0 l/m² 2,6 km/h (1 Bft) S 174 ° 0 min 12 W/m² 14,1 °C 14,5 km/h (3 Bft)
04.09.2026 19:35 15,9 °C 89 % 1004,9 hPa 0,0 l/m² 3,0 km/h (1 Bft) W-NW 288 ° 0 min 12 W/m² 14,1 °C 17,7 km/h (3 Bft)
04.09.2026 19:30 15,9 °C 89 % 1004,8 hPa 0,0 l/m² 3,9 km/h (1 Bft) S-SW 208 ° 0 min 16 W/m² 14,1 °C 12,9 km/h (3 Bft)
04.09.2026 19:25 16,0 °C 89 % 1004,8 hPa 0,0 l/m² 1,8 km/h (1 Bft) NW 324 ° 0 min 17 W/m² 14,2 °C 14,5 km/h (3 Bft)
04.09.2026 19:20 16,1 °C 90 % 1004,6 hPa 0,0 l/m² 1,0 km/h (0 Bft) SW 223 ° 0 min 19 W/m² 14,5 °C 16,1 km/h (3 Bft)
04.09.2026 19:15 16,1 °C 90 % 1004,6 hPa 0,0 l/m² 4,6 km/h (1 Bft) W-SW 239 ° 0 min 25 W/m² 14,5 °C 19,3 km/h (3 Bft)
04.09.2026 19:10 16,1 °C 90 % 1004,6 hPa 0,0 l/m² 1,0 km/h (0 Bft) W-NW 289 ° 0 min 24 W/m² 14,5 °C 6,4 km/h (2 Bft)
04.09.2026 19:05 16,1 °C 90 % 1004,6 hPa 0,0 l/m² 2,7 km/h (1 Bft) SW 221 ° 0 min 20 W/m² 14,5 °C 12,9 km/h (3 Bft)
04.09.2026 19:00 16,1 °C 90 % 1004,6 hPa 0,0 l/m² 2,5 km/h (1 Bft) W-NW 285 ° 0 min 25 W/m² 14,5 °C 14,5 km/h (3 Bft)
04.09.2026 18:55 16,2 °C 90 % 1004,5 hPa 0,0 l/m² 2,6 km/h (1 Bft) S-SW 204 ° 0 min 28 W/m² 14,6 °C 14,5 km/h (3 Bft)
04.09.2026 18:50 16,2 °C 90 % 1004,5 hPa 0,0 l/m² 2,6 km/h (1 Bft) W 267 ° 0 min 36 W/m² 14,6 °C 14,5 km/h (3 Bft)
04.09.2026 18:45 16,2 °C 90 % 1004,4 hPa 0,0 l/m² 2,2 km/h (1 Bft) S-SO 167 ° 0 min 46 W/m² 14,6 °C 12,9 km/h (3 Bft)
04.09.2026 18:40 16,2 °C 90 % 1004,4 hPa 0,0 l/m² 4,3 km/h (1 Bft) W-NW 286 ° 0 min 46 W/m² 14,6 °C 16,1 km/h (3 Bft)
04.09.2026 18:35 16,2 °C 90 % 1004,3 hPa 0,0 l/m² 4,0 km/h (1 Bft) NW 312 ° 0 min 50 W/m² 14,6 °C 16,1 km/h (3 Bft)
04.09.2026 18:30 16,3 °C 90 % 1004,3 hPa 0,0 l/m² 1,7 km/h (1 Bft) W-SW 243 ° 0 min 60 W/m² 14,7 °C 16,1 km/h (3 Bft)
04.09.2026 18:25 16,3 °C 90 % 1004,1 hPa 0,0 l/m² 3,0 km/h (1 Bft) W-SW 252 ° 0 min 57 W/m² 14,7 °C 12,9 km/h (3 Bft)
04.09.2026 18:20 16,3 °C 90 % 1004,0 hPa 0,0 l/m² 2,8 km/h (1 Bft) W 267 ° 0 min 36 W/m² 14,7 °C 20,9 km/h (4 Bft)
04.09.2026 18:15 16,4 °C 90 % 1003,9 hPa 0,0 l/m² 5,1 km/h (1 Bft) W-NW 294 ° 0 min 37 W/m² 14,8 °C 17,7 km/h (3 Bft)
04.09.2026 18:10 16,4 °C 91 % 1003,8 hPa 0,0 l/m² 3,2 km/h (1 Bft) SW 234 ° 0 min 60 W/m² 14,9 °C 16,1 km/h (3 Bft)
04.09.2026 18:05 16,4 °C 91 % 1003,8 hPa 0,0 l/m² 2,5 km/h (1 Bft) S-SW 203 ° 0 min 48 W/m² 14,9 °C 9,7 km/h (2 Bft)
04.09.2026 18:00 16,5 °C 91 % 1003,7 hPa 0,0 l/m² 4,7 km/h (1 Bft) SW 215 ° 0 min 67 W/m² 15,0 °C 16,1 km/h (3 Bft)
04.09.2026 17:55 16,5 °C 91 % 1003,8 hPa 0,0 l/m² 2,7 km/h (1 Bft) O-SO 113 ° 0 min 70 W/m² 15,0 °C 9,7 km/h (2 Bft)
04.09.2026 17:50 16,5 °C 91 % 1003,6 hPa 0,0 l/m² 4,0 km/h (1 Bft) W 281 ° 0 min 77 W/m² 15,0 °C 14,5 km/h (3 Bft)
04.09.2026 17:45 16,6 °C 91 % 1003,5 hPa 0,0 l/m² 2,2 km/h (1 Bft) W-NW 286 ° 0 min 62 W/m² 15,1 °C 12,9 km/h (3 Bft)
04.09.2026 17:40 16,6 °C 92 % 1003,5 hPa 0,0 l/m² 4,2 km/h (1 Bft) S-SO 160 ° 0 min 75 W/m² 15,3 °C 12,9 km/h (3 Bft)
04.09.2026 17:35 16,7 °C 92 % 1003,5 hPa 0,0 l/m² 4,3 km/h (1 Bft) S-SO 147 ° 0 min 120 W/m² 15,4 °C 16,1 km/h (3 Bft)
04.09.2026 17:30 16,8 °C 92 % 1003,4 hPa 0,0 l/m² 4,9 km/h (1 Bft) W 263 ° 0 min 103 W/m² 15,5 °C 17,7 km/h (3 Bft)
04.09.2026 17:25 16,8 °C 92 % 1003,3 hPa 0,0 l/m² 2,2 km/h (1 Bft) SW 219 ° 0 min 77 W/m² 15,5 °C 11,3 km/h (2 Bft)
04.09.2026 17:20 16,9 °C 92 % 1003,4 hPa 0,0 l/m² 2,5 km/h (1 Bft) S 191 ° 0 min 75 W/m² 15,6 °C 14,5 km/h (3 Bft)
04.09.2026 17:15 16,9 °C 92 % 1003,3 hPa 0,0 l/m² 4,6 km/h (1 Bft) SW 232 ° 0 min 71 W/m² 15,6 °C 16,1 km/h (3 Bft)
04.09.2026 17:10 17,1 °C 93 % 1003,3 hPa 0,0 l/m² 3,8 km/h (1 Bft) W-NW 288 ° 0 min 40 W/m² 16,0 °C 12,9 km/h (3 Bft)
04.09.2026 17:05 17,2 °C 93 % 1003,2 hPa 0,0 l/m² 3,7 km/h (1 Bft) N-NW 329 ° 0 min 51 W/m² 16,1 °C 17,7 km/h (3 Bft)
04.09.2026 17:00 17,2 °C 93 % 1003,1 hPa 0,0 l/m² 3,5 km/h (1 Bft) W-SW 239 ° 0 min 72 W/m² 16,1 °C 17,7 km/h (3 Bft)
04.09.2026 16:55 17,2 °C 93 % 1003,3 hPa 0,0 l/m² 2,8 km/h (1 Bft) NO 53 ° 0 min 70 W/m² 16,1 °C 22,5 km/h (4 Bft)
04.09.2026 16:50 17,3 °C 93 % 1002,6 hPa 0,0 l/m² 2,9 km/h (1 Bft) S-SW 209 ° 0 min 51 W/m² 16,2 °C 20,9 km/h (4 Bft)
04.09.2026 16:45 17,3 °C 93 % 1002,6 hPa 0,0 l/m² 0,4 km/h (0 Bft) N-NW 331 ° 0 min 49 W/m² 16,2 °C 4,8 km/h (1 Bft)
04.09.2026 16:40 17,2 °C 93 % 1002,6 hPa 0,0 l/m² 0,0 km/h (0 Bft) W-NW 284 ° 0 min 107 W/m² 16,1 °C 1,6 km/h (1 Bft)
04.09.2026 16:35 17,2 °C 93 % 1002,5 hPa 0,0 l/m² 0,4 km/h (0 Bft) SW 225 ° 0 min 97 W/m² 16,1 °C 4,8 km/h (1 Bft)
04.09.2026 16:30 17,1 °C 93 % 1002,7 hPa 0,0 l/m² 0,6 km/h (0 Bft) SW 221 ° 0 min 76 W/m² 16,0 °C 6,4 km/h (2 Bft)
04.09.2026 16:25 17,1 °C 93 % 1002,9 hPa 0,0 l/m² 0,9 km/h (0 Bft) W-SW 241 ° 0 min 71 W/m² 16,0 °C 6,4 km/h (2 Bft)
04.09.2026 16:20 17,1 °C 93 % 1003,1 hPa 0,2 l/m² 0,2 km/h (0 Bft) SW 215 ° 0 min 43 W/m² 16,0 °C 4,8 km/h (1 Bft)
04.09.2026 16:15 17,1 °C 93 % 1003,2 hPa 0,0 l/m² 0,3 km/h (0 Bft) W 262 ° 0 min 38 W/m² 16,0 °C 3,2 km/h (1 Bft)
04.09.2026 16:10 17,1 °C 93 % 1003,4 hPa 0,0 l/m² 1,0 km/h (0 Bft) S 187 ° 0 min 54 W/m² 16,0 °C 8,0 km/h (2 Bft)
04.09.2026 16:05 17,1 °C 93 % 1003,2 hPa 0,0 l/m² 0,5 km/h (0 Bft) S-SW 194 ° 0 min 100 W/m² 16,0 °C 4,8 km/h (1 Bft)
04.09.2026 16:00 17,0 °C 93 % 1002,9 hPa 0,0 l/m² 1,3 km/h (1 Bft) W 280 ° 0 min 86 W/m² 15,9 °C 11,3 km/h (2 Bft)
04.09.2026 15:55 17,1 °C 93 % 1003,5 hPa 0,0 l/m² 0,8 km/h (0 Bft) S-SW 210 ° 0 min 72 W/m² 16,0 °C 6,4 km/h (2 Bft)
04.09.2026 15:50 17,1 °C 93 % 1003,7 hPa 0,0 l/m² 0,5 km/h (0 Bft) S-SW 205 ° 0 min 88 W/m² 16,0 °C 6,4 km/h (2 Bft)
04.09.2026 15:45 17,1 °C 93 % 1003,5 hPa 0,0 l/m² 1,0 km/h (0 Bft) W 269 ° 0 min 94 W/m² 16,0 °C 6,4 km/h (2 Bft)
04.09.2026 15:40 17,1 °C 93 % 1003,3 hPa 0,0 l/m² 1,0 km/h (0 Bft) W-SW 246 ° 0 min 81 W/m² 16,0 °C 8,0 km/h (2 Bft)
04.09.2026 15:35 17,2 °C 93 % 1003,4 hPa 0,0 l/m² 1,7 km/h (1 Bft) W-NW 293 ° 0 min 121 W/m² 16,1 °C 9,7 km/h (2 Bft)
04.09.2026 15:30 17,2 °C 93 % 1003,1 hPa 0,2 l/m² 0,1 km/h (0 Bft) W-NW 291 ° 0 min 136 W/m² 16,1 °C 4,8 km/h (1 Bft)
04.09.2026 15:25 17,1 °C 93 % 1003,3 hPa 0,0 l/m² 0,5 km/h (0 Bft) W-SW 238 ° 0 min 135 W/m² 16,0 °C 3,2 km/h (1 Bft)
04.09.2026 15:20 17,1 °C 93 % 1003,1 hPa 0,0 l/m² 0,2 km/h (0 Bft) W-SW 255 ° 0 min 130 W/m² 16,0 °C 3,2 km/h (1 Bft)
04.09.2026 15:15 17,1 °C 93 % 1003,0 hPa 0,0 l/m² 0,0 km/h (0 Bft) W-SW 254 ° 0 min 107 W/m² 16,0 °C 1,6 km/h (1 Bft)
04.09.2026 15:10 17,1 °C 93 % 1003,0 hPa 0,0 l/m² 0,1 km/h (0 Bft) SW 225 ° 0 min 131 W/m² 16,0 °C 1,6 km/h (1 Bft)
04.09.2026 15:05 17,0 °C 93 % 1003,1 hPa 0,0 l/m² 0,7 km/h (0 Bft) W-NW 290 ° 0 min 141 W/m² 15,9 °C 9,7 km/h (2 Bft)
04.09.2026 15:00 17,1 °C 93 % 1003,1 hPa 0,0 l/m² 0,6 km/h (0 Bft) SW 229 ° 0 min 138 W/m² 16,0 °C 4,8 km/h (1 Bft)
04.09.2026 14:55 17,0 °C 93 % 1003,0 hPa 0,0 l/m² 0,5 km/h (0 Bft) S 177 ° 0 min 155 W/m² 15,9 °C 4,8 km/h (1 Bft)
04.09.2026 14:50 16,9 °C 93 % 1003,3 hPa 0,0 l/m² 0,4 km/h (0 Bft) W 278 ° 0 min 166 W/m² 15,8 °C 4,8 km/h (1 Bft)
04.09.2026 14:45 16,8 °C 93 % 1003,5 hPa 0,0 l/m² 0,7 km/h (0 Bft) S-SW 211 ° 0 min 150 W/m² 15,7 °C 6,4 km/h (2 Bft)
04.09.2026 14:40 16,8 °C 93 % 1003,5 hPa 0,0 l/m² 1,7 km/h (1 Bft) S-SW 211 ° 0 min 144 W/m² 15,7 °C 9,7 km/h (2 Bft)
04.09.2026 14:35 16,9 °C 93 % 1003,5 hPa 0,0 l/m² 0,3 km/h (0 Bft) W 260 ° 0 min 145 W/m² 15,8 °C 3,2 km/h (1 Bft)
04.09.2026 14:30 16,9 °C 93 % 1003,6 hPa 0,0 l/m² 1,1 km/h (1 Bft) SW 221 ° 0 min 154 W/m² 15,8 °C 6,4 km/h (2 Bft)
04.09.2026 14:25 16,9 °C 93 % 1003,5 hPa 0,0 l/m² 2,1 km/h (1 Bft) W 259 ° 0 min 205 W/m² 15,8 °C 11,3 km/h (2 Bft)
04.09.2026 14:20 17,1 °C 93 % 1003,4 hPa 0,0 l/m² 1,7 km/h (1 Bft) W 267 ° 0 min 224 W/m² 16,0 °C 11,3 km/h (2 Bft)
04.09.2026 14:15 17,1 °C 93 % 1003,6 hPa 0,0 l/m² 0,3 km/h (0 Bft) W-NW 284 ° 0 min 161 W/m² 16,0 °C 3,2 km/h (1 Bft)
04.09.2026 14:10 17,1 °C 93 % 1003,4 hPa 0,0 l/m² 0,9 km/h (0 Bft) W-NW 290 ° 0 min 155 W/m² 16,0 °C 6,4 km/h (2 Bft)
04.09.2026 14:05 17,1 °C 93 % 1003,3 hPa 0,0 l/m² 0,8 km/h (0 Bft) W-SW 251 ° 0 min 160 W/m² 16,0 °C 6,4 km/h (2 Bft)
04.09.2026 14:00 17,0 °C 93 % 1003,0 hPa 0,2 l/m² 0,3 km/h (0 Bft) SW 228 ° 0 min 205 W/m² 15,9 °C 3,2 km/h (1 Bft)
04.09.2026 13:55 16,9 °C 93 % 1002,8 hPa 0,0 l/m² 1,0 km/h (0 Bft) SW 234 ° 0 min 202 W/m² 15,8 °C 4,8 km/h (1 Bft)
04.09.2026 13:50 16,8 °C 94 % 1002,8 hPa 0,0 l/m² 0,6 km/h (0 Bft) NW 310 ° 0 min 161 W/m² 15,8 °C 6,4 km/h (2 Bft)
04.09.2026 13:45 16,7 °C 93 % 1002,7 hPa 0,0 l/m² 0,2 km/h (0 Bft) SW 223 ° 0 min 174 W/m² 15,6 °C 3,2 km/h (1 Bft)
04.09.2026 13:40 16,6 °C 93 % 1002,1 hPa 0,0 l/m² 0,3 km/h (0 Bft) W-NW 294 ° 0 min 192 W/m² 15,5 °C 3,2 km/h (1 Bft)
04.09.2026 13:35 16,5 °C 93 % 1002,2 hPa 0,0 l/m² 0,3 km/h (0 Bft) SW 222 ° 0 min 141 W/m² 15,4 °C 4,8 km/h (1 Bft)
04.09.2026 13:30 16,4 °C 92 % 1002,3 hPa 0,4 l/m² 0,8 km/h (0 Bft) O-SO 107 ° 0 min 65 W/m² 15,1 °C 6,4 km/h (2 Bft)
04.09.2026 13:25 16,6 °C 92 % 1003,0 hPa 0,4 l/m² 1,2 km/h (1 Bft) W 268 ° 0 min 48 W/m² 15,3 °C 14,5 km/h (3 Bft)
04.09.2026 13:20 17,0 °C 92 % 1002,6 hPa 2,2 l/m² 5,8 km/h (2 Bft) W-NW 286 ° 0 min 42 W/m² 15,7 °C 17,7 km/h (3 Bft)
04.09.2026 13:15 17,8 °C 94 % 1002,7 hPa 0,2 l/m² 4,1 km/h (1 Bft) W-SW 256 ° 0 min 26 W/m² 16,8 °C 33,8 km/h (5 Bft)
04.09.2026 13:10 17,8 °C 94 % 1001,4 hPa 0,2 l/m² 3,6 km/h (1 Bft) W-NW 302 ° 0 min 70 W/m² 16,8 °C 12,9 km/h (3 Bft)
04.09.2026 13:05 17,8 °C 94 % 1001,3 hPa 0,0 l/m² 3,1 km/h (1 Bft) NW 322 ° 0 min 93 W/m² 16,8 °C 20,9 km/h (4 Bft)
04.09.2026 13:00 17,7 °C 94 % 1001,3 hPa 0,2 l/m² 2,6 km/h (1 Bft) S-SW 194 ° 0 min 105 W/m² 16,7 °C 14,5 km/h (3 Bft)
04.09.2026 12:55 17,6 °C 94 % 1001,4 hPa 0,2 l/m² 2,3 km/h (1 Bft) SW 216 ° 0 min 78 W/m² 16,6 °C 11,3 km/h (2 Bft)
04.09.2026 12:50 17,4 °C 94 % 1001,5 hPa 0,2 l/m² 2,3 km/h (1 Bft) NW 306 ° 0 min 68 W/m² 16,4 °C 12,9 km/h (3 Bft)
04.09.2026 12:45 17,2 °C 94 % 1001,5 hPa 0,0 l/m² 1,6 km/h (1 Bft) SW 235 ° 0 min 50 W/m² 16,2 °C 11,3 km/h (2 Bft)
04.09.2026 12:40 16,9 °C 94 % 1001,6 hPa 0,0 l/m² 1,0 km/h (0 Bft) W 273 ° 0 min 64 W/m² 15,9 °C 6,4 km/h (2 Bft)
04.09.2026 12:35 16,7 °C 94 % 1001,7 hPa 0,0 l/m² 0,3 km/h (0 Bft) W 281 ° 0 min 83 W/m² 15,7 °C 3,2 km/h (1 Bft)
04.09.2026 12:30 16,6 °C 93 % 1001,9 hPa 0,0 l/m² 0,0 km/h (0 Bft) W 274 ° 0 min 84 W/m² 15,5 °C 0,0 km/h (0 Bft)
04.09.2026 12:25 16,6 °C 93 % 1002,1 hPa 0,0 l/m² 0,2 km/h (0 Bft) W 274 ° 0 min 46 W/m² 15,5 °C 3,2 km/h (1 Bft)
04.09.2026 12:20 16,6 °C 93 % 1002,2 hPa 0,0 l/m² 0,0 km/h (0 Bft) W-SW 237 ° 0 min 82 W/m² 15,5 °C 1,6 km/h (1 Bft)
04.09.2026 12:15 16,5 °C 93 % 1002,5 hPa 0,4 l/m² 0,5 km/h (0 Bft) S-SW 210 ° 0 min 86 W/m² 15,4 °C 4,8 km/h (1 Bft)
04.09.2026 12:10 16,5 °C 93 % 1002,4 hPa 0,2 l/m² 0,6 km/h (0 Bft) W 276 ° 0 min 49 W/m² 15,4 °C 4,8 km/h (1 Bft)
04.09.2026 12:05 16,6 °C 93 % 1003,0 hPa 0,0 l/m² 0,9 km/h (0 Bft) W-NW 284 ° 0 min 82 W/m² 15,5 °C 4,8 km/h (1 Bft)
04.09.2026 12:00 16,4 °C 93 % 1003,1 hPa 0,4 l/m² 0,0 km/h (0 Bft) SO 125 ° 0 min 58 W/m² 15,3 °C 1,6 km/h (1 Bft)
04.09.2026 11:55 16,4 °C 93 % 1003,1 hPa 0,2 l/m² 0,0 km/h (0 Bft) SO 126 ° 0 min 43 W/m² 15,3 °C 0,0 km/h (0 Bft)
04.09.2026 11:50 16,5 °C 93 % 1003,1 hPa 0,6 l/m² 0,0 km/h (0 Bft) W-SW 246 ° 0 min 42 W/m² 15,4 °C 0,0 km/h (0 Bft)
04.09.2026 11:45 16,6 °C 93 % 1003,5 hPa 0,6 l/m² 0,0 km/h (0 Bft) W-SW 246 ° 0 min 37 W/m² 15,5 °C 0,0 km/h (0 Bft)
04.09.2026 11:40 16,6 °C 93 % 1003,4 hPa 0,4 l/m² 0,0 km/h (0 Bft) W-SW 246 ° 0 min 34 W/m² 15,5 °C 0,0 km/h (0 Bft)
04.09.2026 11:35 16,6 °C 93 % 1003,4 hPa 0,2 l/m² 0,0 km/h (0 Bft) W 271 ° 0 min 55 W/m² 15,5 °C 1,6 km/h (1 Bft)
04.09.2026 11:30 16,7 °C 93 % 1003,6 hPa 1,0 l/m² 0,1 km/h (0 Bft) W-NW 288 ° 0 min 50 W/m² 15,6 °C 1,6 km/h (1 Bft)
04.09.2026 11:25 16,7 °C 93 % 1003,8 hPa 0,8 l/m² 0,2 km/h (0 Bft) W 273 ° 0 min 25 W/m² 15,6 °C 3,2 km/h (1 Bft)
04.09.2026 11:20 16,7 °C 93 % 1003,6 hPa 1,2 l/m² 0,1 km/h (0 Bft) S 178 ° 0 min 42 W/m² 15,6 °C 1,6 km/h (1 Bft)
04.09.2026 11:15 16,7 °C 93 % 1003,5 hPa 1,2 l/m² 0,0 km/h (0 Bft) S 190 ° 0 min 20 W/m² 15,6 °C 1,6 km/h (1 Bft)
04.09.2026 11:10 16,8 °C 93 % 1003,4 hPa 0,4 l/m² 0,0 km/h (0 Bft) S-SW 204 ° 0 min 26 W/m² 15,7 °C 1,6 km/h (1 Bft)
04.09.2026 11:05 16,7 °C 93 % 1003,7 hPa 0,6 l/m² 0,5 km/h (0 Bft) S-SW 211 ° 0 min 15 W/m² 15,6 °C 4,8 km/h (1 Bft)
04.09.2026 11:00 16,8 °C 93 % 1003,3 hPa 0,4 l/m² 0,5 km/h (0 Bft) S-SW 209 ° 0 min 41 W/m² 15,7 °C 3,2 km/h (1 Bft)
_ Min-Zeit 05:35 20:05 13:00 - 11:10 - - - - 03:30 11:40
Minimum _ 12,3 °C 87 % 1001,3 hPa - 0,0 km/h (0 Bft) - - - - 10,8 °C 0,0 km/h (0 Bft)
_ Max-Zeit 13:05 12:35 10:10 13:20 20:20 - - 09:55 09:55 13:05 13:15
Maximum _ 17,8 °C 94 % 1012,0 hPa 2,2 l/m² 6,2 km/h
NW (2 Bft)
- - 5 min 391 W/m² 16,8 °C 33,8 km/h
S-SW (5 Bft)
Durchschnitt _ 14,9 °C 91 % 1006,5 hPa #15,0 l/m² 1,2 km/h (1 Bft) SW - #15 min. 93 W/m² 13,4 °C 7,9 km/h (2 Bft)